This demonstration page uses our WeatherBlox Daily Observations layout. Learn more.

Left ArrowRight Arrow

38.83388, -104.82136

Hourly Observations for May 19, 2022

Temp ( °F °C ) Dew Point ( °F °C ) Humidity (%) Winds ( mph kmh ) Pressure ( in mb ) Visibility ( mi km ) Precip ( " mm )
12:58 am 00:58 undefined N/A N/A N/A undefined N/A N/A 10 16 0.00 0.00
3:58 am 03:58 Clear 58 14.5 31 -0.4 36 36 Calm 29.42 996 10 16 0.00 0.00
4:58 am 04:58 Clear 59 15 26 -3.4 28 28 SSW 6 9 29.41 996 10 16 0.00 0.00
5:58 am 05:58 Sunny 62 16.4 23 -4.8 23 23 NNE 5 7 29.42 996 10 16 0.00 0.00
6:58 am 06:58 Mostly Cloudy 60 15.8 29 -1.8 30 30 NW 3 6 29.46 998 10 16 0.00 0.00
7:58 am 07:58 Mostly Sunny 64 17.7 22 -5.6 20 20 S 10 17 29.45 997 10 16 0.00 0.00
8:58 am 08:58 Mostly Sunny 67 19.4 23 -4.8 19 19 S 12 19 29.47 998 10 16 0.00 0.00
9:20 am 09:20 Sunny 68 20 23 -5 18 18 S 12 19 29.46 998 10 16 0.00 0.00
9:58 am 09:58 Sunny 70 21.1 22 -5.7 16 16 SSE 13 20 29.45 997 10 16 0.00 0.00
10:24 am 10:24 Sunny 72 22 23 -5 16 16 SSE 18 30 29.42 996 10 16 0.00 0.00
10:43 am 10:43 Sunny 73 23 23 -5 15 15 SSE 13 20 29.43 997 10 16 0.00 0.00
10:44 am 10:44 Sunny 73 23 23 -5 15 15 SSW 12 19 29.44 997 10 16 0.00 0.00
10:58 am 10:58 Sunny 73 23 21 -6 14 14 WNW 8 13 29.45 997 10 16 0.00 0.00
11:58 am 11:58 Sunny 77 25 24 -4.4 14 14 ENE 5 7 29.42 996 10 16 0.00 0.00
12:58 pm 12:58 Mostly Sunny 79 25.9 22 -5.7 12 12 E 5 7 29.41 996 10 16 0.00 0.00
1:55 pm 13:55 Sunny 77 25 21 -6 12 12 ESE 12 19 29.37 994 10 16 0.00 0.00
1:58 pm 13:58 Sunny 77 24.8 22 -5.5 13 13 ESE 13 20 29.37 995 10 16 0.00 0.00
2:01 pm 14:01 Sunny 77 25 23 -5 13 13 SSE 15 24 29.36 994 10 16 0.00 0.00
2:31 pm 14:31 Sunny 79 26 23 -5 12 12 S 16 26 29.39 995 10 16 0.00 0.00
2:54 pm 14:54 Sunny 79 26 19 -7 11 11 ESE 15 24 29.34 993 10 16 0.00 0.00
2:58 pm 14:58 Sunny 79 26 20 -6.8 11 11 SSE 14 22 29.33 993 10 16 0.00 0.00
3:39 pm 15:39 Sunny 81 27 19 -7 10 10 S 18 30 29.37 995 10 16 0.00 0.00
3:46 pm 15:46 Sunny 79 26 18 -8 10 10 S 14 22 29.37 995 10 16 0.00 0.00
3:58 pm 15:58 Sunny 80 26.7 19 -7.5 10 10 SSE 21 33 29.34 994 10 16 0.00 0.00
4:12 pm 16:12 Partly Cloudy 81 27 19 -7 10 10 ESE 14 22 29.34 994 10 16 0.00 0.00
4:16 pm 16:16 Partly Cloudy 81 27 19 -7 10 10 SSE 20 31 29.33 993 10 16 0.00 0.00
4:45 pm 16:45 Sunny 81 27 18 -8 9 9 S 14 22 29.32 993 10 16 0.00 0.00
4:58 pm 16:58 Sunny 79 26.3 18 -7.8 10 10 SE 8 13 29.31 993 10 16 0.00 0.00
5:58 pm 17:58 Sunny 79 25.9 15 -9.4 9 9 ENE 8 13 29.29 992 10 16 0.00 0.00
6:58 pm 18:58 Sunny 76 24.6 16 -9.1 10 10 SSE 8 13 29.23 990 10 16 0.00 0.00
7:58 pm 19:58 Sunny 75 23.7 14 -9.8 10 10 Calm 29.19 988 10 16 0.00 0.00
8:58 pm 20:58 Clear 72 22.1 14 -9.8 11 11 Calm 29.16 987 10 16 0.00 0.00
9:58 pm 21:58 Clear 70 20.9 17 -8.6 13 13 W 5 7 29.18 988 10 16 0.00 0.00
10:58 pm 22:58 undefined N/A N/A N/A undefined N/A N/A 10 16 0.00 0.00

Powered by AerisWeather